Powrót do katalogu

HJS-6B

AktywnyNaukaVLEO
NORAD 63429·PAYLOAD·🇨🇳 China

Wystrzelony Apr 1, 2025 z Jiuquan Satellite Launch Center

Loading…

Następne Przeloty (najbliższe 24 godziny)

TLE

ŚwieżeSource: Space-Track

Epoka: Sep 14, 2026, 14:43 UTC

1 63429U 25067B   26257.61388448  .00014123  00000-0  67440-3 0  9993
2 63429  54.9972 356.8385 0006397 169.2998 190.8158 15.19322657 81539

Śledź HJS-6B w czasie rzeczywistym z AllMySat

Download on the App Store